www.pogodaiklimat.ru

Погода и климат >> Архив погоды >> Узбекистан >> Дехканабад


ПОГОДА в Дехканабаде

  • Прогноз погоды в Дехканабаде
  • Монитор погоды в Дехканабаде

АРХИВ ПОГОДЫ в Дехканабаде

Время (UTC), дата Ветер
(напр.,м/с)
 
Видим.   Явления Облачность Т
(С)
Тd
(С)
f
(%)
Тe
(С)
Тes
(С)
Комфортность P
(гПа)
Po
(гПа)
Тmin
(С)
Tmax
(С)
R
(мм)
R24
(мм)
S
(см)
21 9.09 штиль 0 н/о ясно +13.6 +3.6 51 +13 +13 1016.1 910.1
00 10.09 С 1 н/о ясно +11.4 +1.7 51 +12 +12 1017.7 910.7
03 10.09 В 5 50 км ясно +12.7 +2.5 50 +11 +12 1017.3 910.8 +11.4
06 10.09 Ю 3 50 км ясно +20.0 +0.9 28 +20 +31 1014.7 911.0
09 10.09 З 4 50 км 1/1 600 м
[Cu hum]
+24.0 -1.7 18 +22 +30 комфорт 1012.7 910.4
12 10.09 СЗ 3 50 км ясно +23.8 -2.2 18 +22 +25 комфорт 1011.9 909.6
15 10.09 С 2 н/о ясно +19.4 -1.7 24 +20 +20 1013.5 909.5 +24.7
18 10.09 В 3 н/о ясно +15.8 +1.5 38 +15 +15 1014.4 909.3
00 11.09 В 5 н/о ясно +14.2 +1.3 41 +13 +13 1015.0 909.3
03 11.09 В 3 50 км ясно +17.4 +0.9 33 +17 +19 1014.9 910.3 +14.2
06 11.09 З 2 50 км ясно +23.8 -2.2 18 +22 +35 комфорт 1013.4 910.9
09 11.09 С 7 50 км ясно +26.0 -1.2 17 +24 +28 комфорт 1011.8 910.3
12 11.09 С 4 50 км ясно +25.2 -0.9 18 +23 +25 комфорт 1011.9 910.1
15 11.09 С 2 н/о ясно +20.8 +2.5 30 +22 +22 комфорт 1013.6 910.3 +27.2
21 11.09 В 6 н/о ясно +15.3 -0.5 34 +14 +14 1015.1 909.6
03 12.09 В 5 50 км ясно +17.9 +0.2 30 +18 +19 1014.6 910.1 +14.2
06 12.09 З 3 50 км ясно +25.0 -1.4 17 +23 +33 комфорт 1011.9 910.1
09 12.09 З 7 н/о ясно +26.6 -0.7 17 +25 +28 комфорт 1010.6 909.4
12 12.09 З 3 50 км ясно +26.4 -0.7 17 +24 +26 комфорт 1009.8 908.6
15 12.09 штиль 0 н/о ясно +20.8 +1.1 27 +21 +21 комфорт 1012.2 909.0 +27.9
18 12.09 В 2 н/о ясно +16.6 -1.4 29 +17 +17 1014.0 909.2
21 12.09 В 4 н/о ясно +16.1 -0.5 32 +16 +16 1013.1 908.2
00 13.09 В 4 н/о ясно +15.8 -0.5 33 +15 +15 1013.2 908.2
03 13.09 В 4 50 км ясно +18.2 -0.2 29 +18 +20 1013.1 908.9 +15.8
06 13.09 З 2 50 км ясно +25.5 -1.7 17 +24 +36 комфорт 1011.0 909.4
09 13.09 З 5 50 км ясно +27.6 -0.5 16 +25 +32 комфорт 1009.5 908.7
12 13.09 С 5 50 км ясно +27.0 -0.9 16 +25 +26 комфорт 1009.0 908.1
15 13.09 С 1 н/о ясно +22.4 +1.7 26 +22 +22 комфорт 1011.0 908.5 +29.2
18 13.09 В 3 н/о ясно +18.3 -0.7 28 +19 +19 1012.5 908.4
21 13.09 В 3 н/о 3/0 2000 м
[Ac cast]
+18.4 -0.2 28 +19 +19 1011.8 907.7
00 14.09 В 3 н/о 4/0 2000 м
[Ac cast]
+15.5 -1.4 31 +15 +15 1013.1 908.0
03 14.09 В 4 50 км 4/0
[Ci ing]
+18.9 0.0 28 +19 +20 1012.4 908.5 +15.5
06 14.09 З 4 50 км 8/0 2000 м
[Ac cast Ci fib]
+26.1 -1.9 16 +24 +29 комфорт 1010.3 908.9
09 14.09 З 4 50 км 8/0 2000 м
[Ac lent Ci fib]
+27.8 -1.2 15 +25 +31 комфорт 1008.9 908.3
12 14.09 С 6 50 км 3/0
[Ac cast]
+26.2 -2.7 15 +24 +25 комфорт 1009.2 907.9
15 14.09 СЗ 5 н/о ясно +21.8 +1.1 25 +21 +21 комфорт 1012.0 909.2 +28.6
18 14.09 В 3 н/о ясно +17.6 +0.4 31 +18 +18 1014.5 910.0
21 14.09 штиль 0 н/о ясно +14.1 -0.2 37 +14 +14 1015.8 909.9
00 15.09 В 4 н/о ясно +13.3 -0.5 39 +12 +12 1016.9 910.6
03 15.09 СВ 5 50 км 3/0 2000 м
[Ac cast]
+16.1 -1.9 29 +15 +16 1016.4 911.1 +13.0
06 15.09 З 4 50 км 3/3 600 м
[Cu hum]
+23.8 +1.1 22 +23 +28 комфорт 1014.2 911.8
09 15.09 З 4 50 км 3/3 600 м
[Cu med, cong]
+25.4 +0.2 19 +24 +29 комфорт 1013.2 911.4
12 15.09 СЗ 5 50 км ясно +24.4 -0.2 20 +23 +24 комфорт 1013.2 911.0
15 15.09 С 4 н/о ясно +19.4 -0.9 25 +19 +19 1015.7 911.6 +25.9
18 15.09 В 4 н/о ясно +15.6 -0.9 32 +15 +15 1017.4 911.9
00 16.09 В 5 н/о ясно +12.6 -1.4 38 +11 +11 1018.3 911.6

 

Местоположение метеостанции Дехканабад (Сырдарьинская область, Узбекистан): широта 38.35 долгота 66.50 высота над уровнем моря 841 м.

В архиве по умолчанию представлена погода в Дехканабаде за последнюю неделю. Архивные данные за месяц целиком и за предыдущие месяцы, начиная с января 2011 года, Вы можете получить, выбрав интересующий диапазон дат из раскрывающегося списка и нажав кнопку "Ввод!".


*Определитесь, кто Вы:
робот инопланетянин человек

Внимание! Время в таблицах - всемирное. Для получения местного времени необходимо прибавить поправку, которая равна 5 ч.

Смотрите также архив погоды в соседних городах и на ближайших метеорологических станциях:

Погода в Акрабате (Узбекистан) (31 км)
Погода в Гузаре (Кашкадарьинская область, Узбекистан) (36 км)
Погода в Минчукуре (Кашкадарьинская область, Узбекистан) (50 км)
Погода в Байсуне (Сухрандарьинская область, Узбекистан) (63 км)
Погода в Шахрисабзе (Кашкадарьинская область, Узбекистан) (83 км)
Погода в Карши (Кашкадарьинская область, Узбекистан) (84 км)
Погода в Ширабаде (Сухрандарьинская область, Узбекистан) (88 км)
Погода в Койтендаге (Дашогузский велаят, Туркменистан) (101 км)
Погода в Шурчи (Сухрандарьинская область, Узбекистан) (120 км)
Погода в Денау (Сухрандарьинская область, Узбекистан) (123 км)

Пояснения к столбцам:

Ветер - указаны скорость ветра в м/с - средняя за 10 мин, порывы в срок и между сроками (в фигурных скобках) и направление, откуда дует ветер: С - северный, СВ - северо-восточный, В - восточный, ЮВ - юго-восточный, Ю - южный, ЮЗ - юго-западный, З - западный, СЗ - северо-западный.
Видимость - горизонтальная дальность видимости в метрах или километрах. При видимости от 1 до 10 км при отсутствии осадков обычно наблюдается дымка, при ухудшении видимости до 1 км и менее - туман. В сухую погоду видимость может ухудшаться дымом, пылью или мглою.
Явления - указаны атмосферные явления, наблюдавшиеся в срок или в последний час перед сроком; фигурными скобками обозначены явления, наблюдавшиеся между сроками (за 1-3 часа до срока); квадратными скобками обозначены град или гололедные отложения с указанием их диаметра в мм.
Облачность - указаны через наклонную черту общая и нижняя облачность в баллах и высота нижней границы облаков в метрах; квадратными скобками обозначены формы облаков: Ci - перистые, Cs - перисто-слоистые, Cc - перисто-кучевые, Ac - высококучевые, As - высокослоистые, Sc - слоисто-кучевые, Ns - слоисто-дождевые, Cu - кучевые, Cb - кучево-дождевые. Подробнее классификацию облаков см. в Атласе облаков (PDF).
T - Температура воздуха - температура, измеренная на высоте 2 м над землей.
Td - Температура точки росы - температура, при понижении до которой содержащийся в воздухе водяной пар достигнет насыщения.
f - Относительная влажность воздуха - влажноcть воздуха, измеренная на высоте 2 м над землей.
Te - Эффективная температура - температура, которую ощущает одетый по сезону человек в тени. Характеристика душности погоды. При расчете учитывается влияние влажности воздуха и скорости ветра на теплоощущения человека.
Tes - Эффективная температура на солнце - температура, которую ощущает человек, с поправкой на солнечный нагрев. Характеристика знойности погоды. Зависит от высоты солнца над горизонтом, облачности и скорости ветра. Ночью, в пасмурную погоду, а также при ветре 12 м/с и более поправка равна нулю.
P - Атмосферное давление - приведенное к уровню моря атмосферное давление.
Po - Атмосферное давление - измеренное на уровне метеостанции атмосферное давление.
Tmin - Минимальная температура - минимум температуры воздуха на высоте 2 м над землей.
Tmax - Максимальная температура - максимум температуры воздуха на высоте 2 м над землей.
R - Количество осадков - Количество выпавших осадков за период времени, мм. При наведении курсора мыши на число - период времени, за который выпало указанное количество осадков.
R24 - Количество осадков - Количество выпавших осадков за 24 часа, мм.
S - Снежный покров - Высота снежного покрова, см. При наведении курсора мыши на число - состояние снежного покрова и степень покрытия местности в баллах.